| time (UTC) | temp F | wind direction | speed MPH | gust MPH | rain 1hr in | rain 24hr in | rain mn in | humidity % | barometer mb |
| 20260508124009 | 70 | 68 | 6.0 | 8.0 | 0.00 | 0.00 | 0.00 | 50 | 1015.6 |
| 20260508122808 | 70 | 151 | 5.0 | 8.0 | 0.00 | 0.00 | 0.00 | 47 | 1015.6 |
| 20260508121627 | 72 | 120 | 6.0 | 9.0 | 0.00 | 0.00 | 0.00 | 47 | 1013.9 |
| 20260508120405 | 71 | 45 | 9.0 | 12.0 | 0.00 | 0.00 | 0.00 | 50 | 1015.6 |
| 20260508115205 | 71 | 74 | 4.0 | 5.0 | 0.00 | 0.00 | 0.00 | 52 | 1015.6 |
| 20260508114004 | 70 | 68 | 6.0 | 8.0 | 0.00 | 0.00 | 0.00 | 56 | 1015.6 |
| 20260508112801 | 68 | 68 | 2.0 | 5.0 | 0.00 | 0.00 | 0.00 | 56 | 1015.6 |
| 20260508111601 | 69 | 56 | 6.0 | 9.0 | 0.00 | 0.00 | 0.00 | 59 | 1015.6 |
| 20260508110359 | 68 | 45 | 5.0 | 9.0 | 0.00 | 0.00 | 0.00 | 61 | 1015.6 |
| 20260508105218 | 67 | 38 | 3.0 | 11.0 | 0.00 | 0.00 | 0.00 | 62 | 1015.6 |
| 20260508103957 | 67 | 33 | 7.0 | 9.0 | 0.00 | 0.00 | 0.00 | 64 | 1015.6 |
| 20260508102756 | 65 | 27 | 7.0 | 9.0 | 0.00 | 0.00 | 0.00 | 63 | 1015.6 |
| 20260508101555 | 65 | 45 | 9.0 | 12.0 | 0.00 | 0.00 | 0.00 | 65 | 1015.6 |
| 20260508100413 | 65 | 40 | 6.0 | 10.0 | 0.00 | 0.00 | 0.00 | 66 | 1015.6 |
| 20260508095212 | 64 | 56 | 6.0 | 9.0 | 0.00 | 0.00 | 0.00 | 69 | 1015.6 |
| 20260508093951 | 63 | 48 | 5.0 | 7.0 | 0.00 | 0.00 | 0.00 | 72 | 1015.6 |
| 20260508092750 | 63 | 73 | 5.0 | 5.0 | 0.00 | 0.00 | 0.00 | 75 | 1015.6 |
| 20260508091549 | 62 | 54 | 5.0 | 7.0 | 0.00 | 0.00 | 0.00 | 78 | 1015.6 |
| 20260508090348 | 61 | 40 | 6.0 | 7.0 | 0.00 | 0.00 | 0.00 | 80 | 1015.6 |
| 20260508085147 | 60 | 65 | 2.0 | 3.0 | 0.00 | 0.00 | 0.00 | 82 | 1015.6 |
| 20260508083946 | 59 | 45 | 5.0 | 7.0 | 0.00 | 0.00 | 0.00 | 84 | 1015.6 |
| 20260508082745 | 59 | 45 | 4.0 | 5.0 | 0.00 | 0.00 | 0.00 | 86 | 1015.6 |
| 20260508081604 | 58 | 45 | 2.0 | 4.0 | 0.00 | 0.00 | 0.00 | 87 | 1015.6 |
| 20260508080343 | 57 | 45 | 6.0 | 8.0 | 0.00 | 0.00 | 0.00 | 88 | 1015.6 |
| 20260508075142 | 56 | 68 | 3.0 | 5.0 | 0.00 | 0.00 | 0.00 | 89 | 1015.6 |
| 20260508073940 | 56 | 60 | 3.0 | 5.0 | 0.00 | 0.00 | 0.00 | 90 | 1015.6 |
| 20260508072740 | 55 | 45 | 3.0 | 4.0 | 0.00 | 0.00 | 0.00 | 90 | 1015.6 |
| 20260508071538 | 54 | 49 | 4.0 | 5.0 | 0.00 | 0.00 | 0.00 | 91 | 1015.6 |
| 20260508070337 | 54 | 37 | 5.0 | 6.0 | 0.00 | 0.00 | 0.00 | 91 | 1015.6 |
| 20260508065135 | 54 | 58 | 3.0 | 5.0 | 0.00 | 0.00 | 0.00 | 91 | 1015.6 |
| 20260508063955 | 53 | 53 | 4.0 | 7.0 | 0.00 | 0.00 | 0.00 | 91 | 1015.6 |
| 20260508062733 | 53 | 23 | 4.0 | 5.0 | 0.00 | 0.00 | 0.00 | 91 | 1015.6 |
| 20260508061532 | 53 | 37 | 3.0 | 5.0 | 0.00 | 0.00 | 0.00 | 91 | 1015.6 |
| 20260508060331 | 53 | 45 | 4.0 | 7.0 | 0.00 | 0.00 | 0.00 | 90 | 1015.6 |
| 20260508055130 | 53 | 45 | 3.0 | 7.0 | 0.00 | 0.00 | 0.00 | 90 | 1015.6 |
| 20260508053929 | 53 | 45 | 4.0 | 7.0 | 0.00 | 0.00 | 0.00 | 90 | 1015.6 |
| 20260508052728 | 53 | 45 | 4.0 | 7.0 | 0.00 | 0.00 | 0.00 | 90 | 1015.6 |
| 20260508051546 | 52 | 56 | 3.0 | 4.0 | 0.00 | 0.00 | 0.00 | 90 | 1015.6 |
| 20260508050325 | 52 | 43 | 1.0 | 2.0 | 0.00 | 0.00 | 0.00 | 90 | 1015.6 |
| 20260508045125 | 52 | 45 | 2.0 | 3.0 | 0.00 | 0.00 | 0.00 | 90 | 1015.6 |
| 20260508043923 | 52 | 45 | 2.0 | 3.0 | 0.00 | 0.00 | 0.00 | 90 | 1015.6 |
| 20260508042722 | 52 | 68 | 1.0 | 1.0 | 0.00 | 0.00 | 0.00 | 90 | 1015.6 |
| 20260508041521 | 51 | 45 | 2.0 | 3.0 | 0.00 | 0.00 | 0.00 | 90 | 1015.6 |
| 20260508040320 | 51 | 0.0 | 0.0 | 0.00 | 0.00 | 0.00 | 90 | 1015.6 | |
| 20260508035119 | 51 | 45 | 0.0 | 1.0 | 0.00 | 0.00 | 0.00 | 90 | 1015.6 |
| 20260508033918 | 51 | 43 | 1.0 | 2.0 | 0.00 | 0.00 | 0.00 | 89 | 1015.6 |
| 20260508032717 | 52 | 45 | 0.0 | 1.0 | 0.00 | 0.00 | 0.00 | 89 | 1015.6 |
| 20260508031516 | 52 | 38 | 1.0 | 1.0 | 0.00 | 0.00 | 0.00 | 89 | 1015.6 |
| 20260508030435 | 52 | 42 | 1.0 | 2.0 | 0.00 | 0.00 | 0.00 | 90 | 1015.6 |
| 20260508025213 | 52 | 30 | 1.0 | 2.0 | 0.00 | 0.00 | 0.00 | 90 | 1015.6 |
| 20260508024012 | 52 | 36 | 2.0 | 3.0 | 0.00 | 0.00 | 0.00 | 90 | 1015.6 |
| 20260508022811 | 52 | 68 | 1.0 | 2.0 | 0.00 | 0.00 | 0.00 | 89 | 1015.6 |
| 20260508021610 | 52 | 45 | 1.0 | 1.0 | 0.00 | 0.00 | 0.00 | 90 | 1015.6 |
| 20260508020429 | 52 | 61 | 1.0 | 3.0 | 0.00 | 0.00 | 0.00 | 90 | 1015.6 |
| 20260508015208 | 53 | 45 | 3.0 | 4.0 | 0.00 | 0.00 | 0.00 | 90 | 1015.6 |
| 20260508014047 | 53 | 29 | 2.0 | 3.0 | 0.00 | 0.00 | 0.00 | 89 | 1015.6 |
| 20260508012805 | 52 | 28 | 2.0 | 3.0 | 0.00 | 0.00 | 0.00 | 89 | 1015.6 |
| 20260508011624 | 52 | 45 | 0.0 | 1.0 | 0.00 | 0.00 | 0.00 | 88 | 1015.6 |
| 20260508010403 | 52 | 45 | 0.0 | 1.0 | 0.00 | 0.00 | 0.00 | 88 | 1015.6 |
| 20260508005202 | 52 | 0.0 | 1.0 | 0.00 | 0.00 | 0.00 | 88 | 1015.6 | |
| 20260508004001 | 52 | 0.0 | 0.0 | 0.00 | 0.00 | 0.00 | 87 | 1015.6 | |
| 20260508002759 | 53 | 0.0 | 0.0 | 0.00 | 0.00 | 0.00 | 87 | 1015.6 | |
| 20260508001558 | 53 | 45 | 0.0 | 1.0 | 0.00 | 0.00 | 0.00 | 87 | 1015.6 |
| 20260508000357 | 53 | 45 | 1.0 | 2.0 | 0.00 | 0.00 | 0.00 | 86 | 1015.6 |
| 20260507235156 | 53 | 40 | 0.0 | 1.0 | 0.00 | 0.00 | 0.00 | 86 | 1015.6 |
| 20260507233955 | 54 | 45 | 0.0 | 1.0 | 0.00 | 0.00 | 0.00 | 85 | 1015.6 |
| 20260507232854 | 54 | 0.0 | 0.0 | 0.00 | 0.00 | 0.00 | 85 | 1015.6 | |
| 20260507231553 | 54 | 23 | 1.0 | 1.0 | 0.00 | 0.00 | 0.00 | 85 | 1015.6 |
| 20260507230351 | 54 | 38 | 1.0 | 2.0 | 0.00 | 0.00 | 0.00 | 84 | 1015.6 |
| 20260507225150 | 54 | 0.0 | 1.0 | 0.00 | 0.00 | 0.00 | 84 | 1015.6 | |
| 20260507224010 | 54 | 33 | 0.0 | 1.0 | 0.00 | 0.00 | 0.00 | 83 | 1015.6 |
| 20260507222749 | 54 | 45 | 1.0 | 1.0 | 0.00 | 0.00 | 0.00 | 82 | 1015.6 |
| 20260507221608 | 54 | 30 | 1.0 | 2.0 | 0.00 | 0.00 | 0.00 | 82 | 1015.6 |
| 20260507220346 | 54 | 0.0 | 0.0 | 0.00 | 0.00 | 0.00 | 81 | 1015.6 | |
| 20260507215156 | 54 | 45 | 0.0 | 1.0 | 0.00 | 0.00 | 0.00 | 81 | 1015.6 |
| 20260507213956 | 55 | 0.0 | 0.0 | 0.00 | 0.00 | 0.00 | 80 | 1015.6 | |
| 20260507212754 | 55 | 0.0 | 0.0 | 0.00 | 0.00 | 0.00 | 79 | 1015.6 | |
| 20260507211554 | 55 | 0.0 | 1.0 | 0.00 | 0.00 | 0.00 | 79 | 1015.6 | |
| 20260507210352 | 55 | 0.0 | 1.0 | 0.00 | 0.00 | 0.00 | 78 | 1015.6 | |
| 20260507205151 | 55 | 23 | 0.0 | 1.0 | 0.00 | 0.00 | 0.00 | 77 | 1015.6 |
| 20260507203950 | 55 | 0.0 | 0.0 | 0.00 | 0.00 | 0.00 | 77 | 1015.6 | |
| 20260507202749 | 56 | 0.0 | 0.0 | 0.00 | 0.00 | 0.00 | 76 | 1015.6 | |
| 20260507201548 | 56 | 0.0 | 0.0 | 0.00 | 0.00 | 0.00 | 75 | 1015.6 | |
| 20260507200407 | 56 | 45 | 1.0 | 2.0 | 0.00 | 0.00 | 0.00 | 74 | 1015.6 |
| 20260507195146 | 57 | 39 | 1.0 | 1.0 | 0.00 | 0.00 | 0.00 | 73 | 1015.6 |
| 20260507193945 | 57 | 28 | 0.0 | 1.0 | 0.00 | 0.00 | 0.00 | 72 | 1015.6 |
| 20260507192744 | 57 | 45 | 1.0 | 2.0 | 0.00 | 0.00 | 0.00 | 71 | 1015.6 |
| 20260507191603 | 57 | 45 | 1.0 | 2.0 | 0.00 | 0.00 | 0.00 | 71 | 1015.6 |
| 20260507190342 | 58 | 23 | 0.0 | 1.0 | 0.00 | 0.00 | 0.00 | 70 | 1015.6 |
| 20260507185201 | 58 | 45 | 1.0 | 2.0 | 0.00 | 0.00 | 0.00 | 70 | 1015.6 |
| 20260507183940 | 58 | 45 | 2.0 | 3.0 | 0.00 | 0.00 | 0.00 | 69 | 1015.6 |
| 20260507182758 | 59 | 45 | 1.0 | 3.0 | 0.00 | 0.00 | 0.00 | 67 | 1015.6 |
| 20260507181538 | 59 | 45 | 2.0 | 4.0 | 0.00 | 0.00 | 0.00 | 67 | 1015.6 |
| 20260507180336 | 59 | 30 | 2.0 | 3.0 | 0.00 | 0.00 | 0.00 | 68 | 1015.6 |
| 20260507175135 | 59 | 45 | 1.0 | 2.0 | 0.00 | 0.00 | 0.00 | 67 | 1015.6 |
| 20260507173933 | 59 | 68 | 1.0 | 3.0 | 0.00 | 0.00 | 0.00 | 67 | 1015.6 |
| 20260507172732 | 59 | 31 | 2.0 | 3.0 | 0.00 | 0.00 | 0.00 | 67 | 1015.6 |
| 20260507171531 | 59 | 39 | 2.0 | 3.0 | 0.00 | 0.00 | 0.00 | 66 | 1015.6 |
| 20260507170330 | 60 | 31 | 2.0 | 3.0 | 0.00 | 0.00 | 0.00 | 66 | 1015.6 |
| 20260507165129 | 60 | 11 | 2.0 | 3.0 | 0.00 | 0.00 | 0.00 | 66 | 1015.6 |
| 20260507163928 | 60 | 31 | 2.0 | 3.0 | 0.00 | 0.00 | 0.00 | 65 | 1015.6 |
| 20260507162727 | 60 | 68 | 2.0 | 3.0 | 0.00 | 0.00 | 0.00 | 65 | 1015.6 |
| 20260507161526 | 60 | 31 | 1.0 | 2.0 | 0.00 | 0.00 | 0.00 | 64 | 1015.6 |
| 20260507160324 | 60 | 26 | 3.0 | 4.0 | 0.00 | 0.00 | 0.00 | 64 | 1015.6 |
| 20260507155123 | 60 | 75 | 3.0 | 5.0 | 0.00 | 0.00 | 0.00 | 64 | 1015.6 |
| 20260507153922 | 60 | 40 | 2.0 | 2.0 | 0.00 | 0.00 | 0.00 | 63 | 1015.6 |
| 20260507152721 | 60 | 0 | 2.0 | 3.0 | 0.00 | 0.00 | 0.00 | 64 | 1015.6 |
| 20260507151520 | 61 | 16 | 2.0 | 3.0 | 0.00 | 0.00 | 0.00 | 63 | 1015.6 |
| 20260507150319 | 60 | 51 | 2.0 | 2.0 | 0.00 | 0.00 | 0.00 | 63 | 1015.6 |
| 20260507145118 | 60 | 60 | 4.0 | 6.0 | 0.00 | 0.00 | 0.00 | 63 | 1015.6 |
| 20260507143917 | 60 | 58 | 2.0 | 3.0 | 0.00 | 0.00 | 0.00 | 64 | 1015.6 |
| 20260507142716 | 60 | 54 | 2.0 | 5.0 | 0.00 | 0.00 | 0.00 | 64 | 1015.6 |
| 20260507141615 | 60 | 49 | 2.0 | 3.0 | 0.00 | 0.00 | 0.00 | 64 | 1015.6 |
| 20260507140433 | 60 | 62 | 3.0 | 3.0 | 0.00 | 0.00 | 0.00 | 64 | 1015.6 |
| 20260507135232 | 61 | 23 | 1.0 | 1.0 | 0.00 | 0.00 | 0.00 | 65 | 1015.6 |
| 20260507134011 | 61 | 26 | 2.0 | 5.0 | 0.00 | 0.00 | 0.00 | 63 | 1015.6 |
| 20260507132850 | 61 | 65 | 0.0 | 1.0 | 0.00 | 0.00 | 0.00 | 62 | 1015.6 |
| 20260507131609 | 61 | 54 | 2.0 | 3.0 | 0.00 | 0.00 | 0.00 | 61 | 1015.6 |
| 20260507130427 | 62 | 45 | 3.0 | 5.0 | 0.00 | 0.00 | 0.00 | 61 | 1015.6 |
| 20260507125206 | 62 | 343 | 2.0 | 7.0 | 0.00 | 0.00 | 0.00 | 62 | 1015.6 |